This is the latest recevied weather packets stored in our database for station/object N5COP-13. If no packets are shown the sender has not sent any weather packets the latest 10 day(s).
| Time | Temp. | Humidity | Pressure | Rain* | Wind** | Luminosity | Snow |
|---|---|---|---|---|---|---|---|
| 1777408921 | 27.78° C | 8% | 1013.6 hPa | 0 mm | - | 727 W/m² | - |
| 1777408618 | 27.78° C | 8% | 1013.6 hPa | 0 mm | - | 735 W/m² | - |
| 1777408314 | 27.78° C | 8% | 1013.9 hPa | 0 mm | - | 747 W/m² | - |
| 1777408013 | 27.78° C | 9% | 1013.7 hPa | 0 mm | - | 755 W/m² | - |
| 1777407710 | 27.22° C | 9% | 1013.9 hPa | 0 mm | - | 763 W/m² | - |
| 1777407405 | 27.22° C | 9% | 1013.7 hPa | 0 mm | - | 772 W/m² | - |
| 1777407100 | 26.67° C | 10% | 1013.6 hPa | 0 mm | - | 782 W/m² | - |
| 1777406796 | 26.67° C | 13% | 1013.9 hPa | 0 mm | - | 792 W/m² | - |
| 1777406491 | 26.67° C | 13% | 1014 hPa | 0 mm | - | 797 W/m² | - |
| 1777406186 | 27.22° C | 14% | 1014.1 hPa | 0 mm | - | 803 W/m² | - |
| 1777405881 | 26.67° C | 13% | 1014.2 hPa | 0 mm | - | 809 W/m² | - |
| 1777405577 | 26.67° C | 13% | 1014.2 hPa | 0 mm | - | 818 W/m² | - |
| 1777405274 | 26.11° C | 14% | 1014.3 hPa | 0 mm | - | 822 W/m² | - |
| 1777404974 | 25.56° C | 15% | 1014.4 hPa | 0 mm | - | 830 W/m² | - |
| 1777404669 | 26.11° C | 16% | 1014.3 hPa | 0 mm | - | 833 W/m² | - |
| 1777404365 | 25.56° C | 16% | 1014.5 hPa | 0 mm | - | 838 W/m² | - |
| 1777404062 | 25° C | 17% | 1014.5 hPa | 0 mm | - | 843 W/m² | - |
| 1777403757 | 25° C | 16% | 1014.6 hPa | 0 mm | - | 846 W/m² | - |
| 1777403456 | 25° C | 17% | 1014.7 hPa | 0 mm | - | 847 W/m² | - |
| 1777403151 | 25° C | 16% | 1014.5 hPa | 0 mm | - | 848 W/m² | - |
| 1777402846 | 25° C | 16% | 1014.9 hPa | 0 mm | - | 852 W/m² | - |
| 1777402543 | 25° C | 16% | 1014.6 hPa | 0 mm | - | 856 W/m² | - |
| 1777402241 | 25° C | 16% | 1015 hPa | 0 mm | - | 860 W/m² | - |
| 1777401936 | 24.44° C | 16% | 1014.9 hPa | 0 mm | - | 865 W/m² | - |
| 1777401634 | 25° C | 16% | 1014.9 hPa | 0 mm | - | 865 W/m² | - |
* Rain latest hour (hover to see other rain measurements)
** Current wind speed in m/s (hover to see current wind gust speed)